Notices

What's New in latest Release from April 7th, 2021:

- Updated Glossary, including Speed of Maximum Gust, and Total Hourly Precipitation

- Updated national and regional climate services offices contacts and prices information

- Addition of station inventory lists for 1981-2010, 1971-2000, and 1961-1990 Normals.

If you haven't already, please take our survey and provide feedback about our website: https://eccc.sondage-survey.ca/f/LanguageSelection.aspx?s=442ca660-fcf1-47c0-95a9-59707d6fd709

Hourly Data Report for October 29, 2015

IQALUIT CLIMATE
NUNAVUT

63°44'50.000" N
68°32'40.000" W
33.50 m
2402592
71321
XFB

Download Data

Hourly Data (October 2015)
Hourly Data Report for October 29, 2015
TIME
LST
Temp Definition
°C
Dew Point Definition
°C
Rel Hum Definition
%
Precip. Amount Definition
mm

Wind Dir Definition
10's deg

Wind Spd Definition
km/h
Visibility Definition
km
Stn Press Definition
kPa
Hmdx Definition


Wind Chill Definition


Weather Definition


00:00 -17.5 -19.9 82 0.0 33 24   101.06   -28 LegendNANA
01:00 -19.1 -21.5 81 0.0 32 19   101.04   -29 LegendNANA
02:00 -19.4 -21.6 82 0.0 33 17   101.06   -29 LegendNANA
03:00 -20.1 -22.4 82 0.0 32 19   101.02   -30 LegendNANA
04:00 -20.5 -22.9 81 0.0 32 19   101.01   -31 LegendNANA
05:00 -20.4 -23.2 79 0.0 32 18   100.96   -30 LegendNANA
06:00 -18.9 -22.3 75 0.0 33 12   100.91   -27 LegendNANA
07:00 -20.1 -23.1 77 0.0 33 14   100.87   -29 LegendNANA
08:00 -18.2 -22.1 71 0.0 33 7   100.82   -24 LegendNANA
09:00 -16.9 -21.7 67 0.0 35 5   100.78   -21 LegendNANA
10:00 -16.0 -21.1 65 0.0 1 4   100.72   -19 LegendNANA
11:00 -13.2 -19.3 61 0.0 8 9   100.65   -19 LegendNANA
12:00 -12.4 -19.0 58 0.0 10 9   100.59   -18 LegendNANA
13:00 -12.0 -18.0 61 0.0 11 10   100.52   -18 LegendNANA
14:00 -12.0 -16.8 68 0.0 12 12   100.47   -18 LegendNANA
15:00 -13.5 -16.9 75 0.0 28 5   100.42   -17 LegendNANA
16:00 -13.7 -17.1 76 0.0 33 6   100.33   -18 LegendNANA
17:00 -14.3 -16.9 80 0.0 33 7   100.23   -19 LegendNANA
18:00 -13.6 -16.1 82 0.0 32 10   100.15   -20 LegendNANA
19:00 -13.2 -15.7 81 0.0 32 16   100.05   -21 LegendNANA
20:00 -10.2 -13.5 77 0.0 10 4   99.98   -13 LegendNANA
21:00 -8.5 -14.1 64 0.0 9 17   99.89   -15 LegendNANA
22:00 -8.6 -14.0 65 0.0 8 26   99.77   -17 LegendNANA
23:00 -8.5 -13.4 68 0.0 7 21   99.66   -16 LegendNANA

Notes on Data Quality.

Legend

  • E = Estimated
  • M = Missing
  • NA = Not Available*
  • [empty] = Indicates an unobserved value
Date modified: